#timestamp,LO_Frequency,Hit,StdDev 
1575129615.4,286047005.9,N
1575129635.2,286047003.7,N
1575129655.0,286047002.5,N
1575129656.0,286047002.5,N
1575129675.8,286046999.8,N
1575129695.6,286046999.9,N
1575129715.5,286046998.4,N
1575129735.3,286046999.0,N
1575129755.1,286046999.0,N
1575129775.9,286046996.6,N
1575129795.7,286046999.3,N
1575129815.6,286046998.5,N
1575129835.4,286047000.4,N
1575129855.2,286047002.5,N
1575129875.1,286047002.5,N
1575129876.0,286047002.5,N
1575129895.8,286047001.9,N
1575129915.6,286046999.7,N
1575129935.5,286047000.7,N
1575129955.3,286047000.5,N
1575129975.2,286047002.5,N
1575129995.9,286047001.0,N
1575130015.7,286047004.1,N
1575130035.6,286047003.4,N
1575130055.4,286047002.9,N
1575130075.2,286047005.6,N
1575130095.1,286047003.1,N
1575130096.0,286047003.1,N
1575130115.8,286046999.7,N
1575130135.7,286047002.5,N
1575130155.5,286047005.2,N
1575130175.3,286047004.6,N
1575130195.2,286047006.8,Y
1575130215.0,286047003.8,P
1575130215.9,286047003.8,P
1575130235.8,286047003.9,P
1575130255.6,286047002.5,N
1575130275.4,286047000.2,N
1575130295.3,286047004.4,Y
1575130315.1,286047000.1,P
1575130335.9,286046998.1,N
1575130355.7,286046998.7,N
1575130375.5,286047000.4,N
1575130395.4,286047001.6,N
1575130415.2,286047000.8,N
1575130435.0,286047004.3,N
1575130435.9,286047004.3,N
1575130455.8,286046998.1,N
1575130475.6,286047001.0,N
1575130495.5,286047002.4,N
1575130515.3,286047001.6,N
1575130535.1,286047002.5,N
1575130555.9,286047001.1,N
1575130575.7,286046998.6,N
1575130595.5,286046999.6,N
1575130615.4,286046998.5,N
1575130635.2,286046998.7,N
1575130655.1,286047001.2,N
1575130656.0,286047001.2,N
1575130675.8,286046998.3,N
1575130695.6,286046998.1,N
1575130715.5,286047000.5,N
1575130735.3,286047001.0,N
1575130755.1,286047000.0,N
1575130775.9,286046999.8,N
1575130795.7,286047001.1,N
1575130815.6,286046996.5,N
1575130835.4,286046998.4,N
1575130855.2,286047000.8,N
1575130875.1,286046997.0,N
1575130876.0,286046997.0,N
1575130895.8,286046998.1,N
1575130915.6,286047002.5,N
1575130935.5,286047002.7,N
1575130955.3,286046999.7,N
1575130975.2,286046998.5,N
1575130995.9,286046999.6,N
1575131015.7,286047001.1,N
1575131035.6,286046998.6,N
1575131055.4,286046997.2,N
1575131075.2,286046998.9,N
1575131095.1,286046998.1,N
1575131096.0,286046998.1,N
1575131115.8,286047001.0,N
1575131135.7,286046998.5,N
1575131155.5,286046996.5,N
1575131175.3,286046999.5,N
1575131195.2,286046999.2,N
1575131215.0,286047000.3,N
1575131215.9,286047000.3,N
1575131235.7,286047000.4,N
1575131255.6,286046996.5,N
1575131275.4,286046998.7,N
1575131295.3,286046999.5,N
1575131315.1,286046996.8,N
1575131316.0,286046996.8,N
1575131335.8,286046997.9,N
1575131355.7,286046997.7,N
1575131375.5,286046996.2,N
1575131395.3,286046998.9,N
1575131415.2,286046996.7,N
1575131435.0,286046998.0,N
1575131435.9,286046998.0,N
1575131455.8,286046994.3,Y
1575131475.6,286046996.4,P
1575131495.4,286046996.4,P
1575131515.3,286046997.7,N
1575131535.1,286046996.5,Y
1575131555.9,286047002.7,P
1575131575.7,286047002.5,N
1575131595.5,286047002.7,N
1575131615.4,286047001.0,N
1575131635.2,286046998.5,N
1575131655.1,286047000.5,N
1575131656.0,286047000.5,N
1575131675.8,286047001.2,N
1575131695.6,286046999.2,N
1575131715.5,286047001.2,N
1575131735.3,286047001.2,N
1575131755.1,286046998.6,N
1575131775.9,286046999.4,N
1575131795.7,286046998.7,N
1575131815.6,286046999.3,N
1575131835.4,286047001.2,N
1575131855.2,286046999.4,N
1575131875.1,286046999.5,N
1575131876.0,286046999.5,N
1575131895.8,286046996.5,N
1575131915.6,286047002.4,N
1575131935.5,286047000.9,N
1575131955.3,286047002.6,N
1575131975.2,286046998.2,N
1575131995.9,286046998.2,N
1575132015.7,286046996.9,N
1575132035.6,286046996.9,N
1575132055.4,286046996.6,N
1575132075.3,286046997.2,N
1575132095.1,286046996.5,N
1575132096.0,286046996.5,N
1575132115.8,286047002.5,N
1575132135.7,286047005.0,N
1575132155.5,286047003.1,N
1575132175.3,286047002.1,N
1575132195.2,286047000.8,N
1575132215.0,286046998.1,N
1575132215.9,286046998.1,N
1575132235.8,286047002.4,N
1575132255.6,286047002.1,N
1575132275.4,286047002.3,N
1575132295.3,286047004.2,N
1575132315.1,286047005.3,N
1575132335.9,286047003.8,N
1575132355.7,286047004.2,N
1575132375.5,286047001.3,N
1575132395.4,286047004.2,N
1575132415.2,286046999.7,N
1575132435.0,286047002.7,N
1575132435.9,286047002.7,N
1575132455.8,286047002.3,N
1575132475.6,286047002.6,N
1575132495.5,286047002.5,N
1575132515.3,286047001.9,N
1575132535.1,286047001.9,N
1575132555.9,286047003.2,N
1575132575.7,286047003.3,N
1575132595.5,286047005.6,N
1575132615.4,286047003.7,N
1575132635.2,286047002.7,N
1575132655.1,286047000.3,N
1575132656.0,286047000.3,N
1575132675.8,286046999.9,N
1575132695.6,286047002.7,N
1575132715.5,286047003.4,N
1575132735.3,286047003.8,N
1575132755.1,286047005.7,Y
1575132775.9,286047003.8,P
1575132795.7,286046999.9,N
1575132815.6,286046999.0,N
1575132835.4,286046999.3,N
1575132855.2,286046995.1,N
1575132875.1,286046995.3,N
1575132876.0,286046995.3,N
1575132895.8,286046998.0,N
1575132915.6,286046996.7,N
1575132935.5,286046997.3,N
1575132955.3,286046996.0,N
1575132975.2,286046998.0,N
1575132995.9,286046996.6,N
1575133015.7,286046995.5,N
1575133035.6,286046995.9,N
1575133055.4,286046997.4,N
1575133075.2,286046999.1,N
1575133095.1,286046995.0,N
1575133096.0,286046995.0,N
1575133115.8,286046995.1,N
1575133135.7,286046998.2,N
1575133155.5,286046999.5,N
1575133175.3,286046995.1,N
1575133195.2,286046996.7,N
